Hlavní strana
METAR-TAF:

METAR-TAF

Letiště :

Metropolis Municipal Airport

Metropolis, Illinois, Spojené státy americké

zeměpisná šířka: 37-11-09N, zeměpisná délka: 088-45-02W, výška: 117 m

Aktuální stav počasí

Zpráva byla vytvořena před 18 minutami, v 10:15 UTC
Jihojihozápadní vítr 5 kt
Teplota 4°C
Vlhkost vzduchu 93%
Tlak 1012 hPa
Viditelnost: 16.1 km
Zataženo ve výšce 600 ft

METAR: KM30 241015Z AUTO 21005KT 10SM OVC006 04/03 A2988 RMK AO2 T00370030

Čas: 04:33 (10:33 UTC)


TAF: chybějící

Stav a předpovědi počasí z více než 4 000 letišť (zprávy METAR a TAF).

Červené a žluté tečky na mapě představují dostupné meteorologické stanice.

Když kurzor umístíte na tečku, zobrazí se název stanice.

Pak kliknutím zobrazíte stav a předpověď počasí.

Chcete-li změnit mapu, kliknutím na zelené tlačítko se znaménkem +mapu přiblížíte, kliknutím na zelené tlačítko se znaménkem – mapu oddálíte a kliknutím na zelené šipky přejdete na sousední mapy.


METAR-TAF: